Regional Weather Roundup
Issued by NWS Sioux Falls, SD

Home | Current Version | Previous Version | Text Only | Print | Product List | Glossary On
Versions: 1 2 3 4 5 6 7 8 9 10 11 12 13 14 15 16 17 18 19 20 21 22 23 24 25 26 27 28 29 30 31 32 33 34 35 36 37 38 39 40 41 42 43 44 45 46 47 48 49 50
326
ASUS43 KFSD 130202
RWRFSD

WEATHER ROUNDUP FOR SE SOUTH DAKOTA/SW MINNESOTA/NW IOWA
NATIONAL WEATHER SERVICE SIOUX FALLS SD
800 PM CST TUE DEC 12 2017

NOTE: "FAIR" INDICATES FEW OR NO CLOUDS BELOW 12,000 FEET WITH NO
SIGNIFICANT WEATHER AND OR OBSTRUCTIONS TO VISIBILITY.


SDZ038>040-050-052>070-130300-
SOUTHEAST SOUTH DAKOTA

CITY           SKY/WX    TMP DP  RH WIND       PRES   REMARKS
BROOKINGS      CLEAR     35  27  72 SW8       29.73  WCI  29
CHAMBERLAIN    CLEAR     46  23  41 SW7       29.77F
HURON          CLOUDY    35  24  64 S7        29.73F WCI  29
MADISON        FAIR      36  28  75 SW12G21   29.74F
MITCHELL       CLEAR     40  25  55 SW8       29.76F
SIOUX FALLS    CLEAR     38  28  67 SW7       29.76F
WINNER         FAIR      44  23  43 SW10      29.80F
$$

MNZ071-072-080-081-089-090-097-098-130300-
SOUTHWEST MINNESOTA

CITY           SKY/WX    TMP DP  RH WIND       PRES   REMARKS
FAIRMONT       PTCLDY    31  25  78 SW14      29.81F WCI  21
JACKSON        CLEAR     30  27  86 MISG      29.79F
LUVERNE        CLEAR     23  21  93 S7        29.78F WCI  15
MARSHALL       CLEAR     38  28  67 SW24G33   29.69F
MONTEVIDEO     CLOUDY    30  27  86 SW6       29.70F WCI  24
PIPESTONE      CLOUDY    32  27  80 SW9       29.74F WCI  24
REDWOOD FALLS  CLEAR     32  26  78 S7        29.74F WCI  26
WINDOM         CLEAR     30  18  59 S10       29.77F WCI  21
WORTHINGTON    CLEAR     32  27  81 SW16      29.76F WCI  21
$$

IAZ001>003-012>014-020>022-031-032-NEZ013-014-SDZ071-130300-
NORTHWEST IOWA

CITY           SKY/WX    TMP DP  RH WIND       PRES   REMARKS
CHEROKEE       CLEAR     29  25  85 S8        29.85F WCI  21
DENISON        CLEAR     30  25  80 SW7       29.92F WCI  23
ESTHERVILLE    CLEAR     29  24  82 SW13      29.81F WCI  19
LE MARS        CLEAR     32  25  74 S8        29.84F WCI  25
ORANGE CITY    CLEAR     30  28  93 S8        29.81F WCI  23
SHELDON        CLEAR     30  27  86 S10       29.79F WCI  21
SIOUX CITY     CLEAR     28  22  78 E6        29.88F WCI  22
SPENCER        CLEAR     30  23  75 SW12      29.82F WCI  20
STORM LAKE     CLEAR     28  23  80 SW14      29.85F WCI  17
$$

ABBREVIATIONS USED IN REMARKS
   TC - TEMPERATURE IN CELSIUS
  WCI - WIND CHILL INDEX
   HX - HEAT INDEX
  VSB - VISIBILITY





USA.gov is the U.S. government's official web portal to all federal, state and local government web resources and services.